Regional Weather Roundup
Issued by NWS Binghamton, NY

Home | Current Version | Previous Version | Text Only | Print | Product List | Glossary On
Versions: 1 2 3 4 5 6 7 8 9 10 11 12 13 14 15 16 17 18 19 20 21 22 23 24 25 26 27 28 29 30 31 32 33 34 35 36 37 38 39 40 41 42 43 44 45 46 47 48 49 50
000
ASUS41 KBGM 251610
RWRBGM

REGIONAL WEATHER ROUNDUP
NATIONAL WEATHER SERVICE BINGHAMTON NY
1200 PM EDT TUE APR 25 2017

Note: "fair" indicates few or no clouds below 12,000 feet with no
significant weather and/or obstructions to visibility.

* = Station(s) that does not report precipitation, such as rain,
snow, etc, also no thunder or fog.

NYZ009-015>018-022>025-036-037-044>046-055>057-062-251700
...Central New York...

CITY           SKY/WX    TMP DP  RH WIND       PRES   REMARKS
Binghamton     CLOUDY    50  45  83 SE14      30.07S
Cortland       CLOUDY    52  46  82 SE12      30.07F
Dansville      LGT RAIN  57  48  72 SE10      30.01F
Elmira         CLOUDY    56  45  66 SE12      30.04F
Seneca Falls   CLOUDY    55  48  76 SE9       30.06F
Ithaca         CLOUDY    54  46  74 SE13      30.06F
Hamilton       CLOUDY    52  43  71 SE14G20   30.11S
Monticello     CLOUDY    46  46 100 E15       30.12S
Norwich        LGT RAIN  52  45  76 SE7       30.11F
Penn Yan       CLOUDY    56  46  69 SE14      30.04F
Rome           LGT RAIN  50  45  83 E18G28    30.15F
Sidney         CLOUDY    54  52  94 NE5       30.09F
Syracuse       LGT RAIN  49  47  93 E13       30.09F
$$

PAZ038>040-043-044-047-048-072-251700
...Northeast Pennsylvania...

CITY           SKY/WX    TMP DP  RH WIND       PRES   REMARKS
Hazleton       CLOUDY    52  46  82 E10G18    30.04F
Scranton       CLOUDY    55  47  74 E10G21    30.05F
$$
&&
KEY
WCI = Wind Chill Index
VSB = Visibility
HX  = Heat Index
$$



USA.gov is the U.S. government's official web portal to all federal, state and local government web resources and services.